Island Escape — C6SK4 — position and weather

sailwx.info

Track history (hours):
 
Tides and Currents Weather Stations Pressure Air Temp Water Temp Dewpoint Dewpoint Depression Visibility Wind Speed Wind Dir Waves Ship Positions

Island Escape

Operator: V Ships Leisure SAM

Last reported at 2014-Aug-29 17:33 UTC. Time now 2014-Aug-31 00:32 UTC.
Position N 35°60' W 005°19'.

Length 185 m; draft 7.3 m.

Type: Passenger vessel. MMSI: 311368000.

Date/timePositionNaut miles runAvg speedWind from/ knotsBaromVisibWave heightAir tempDewpointWater temp
2014-Aug-29 17:33N 35°60' W 005°19'1 0.0
2014-Aug-28 21:33N 35°60' W 005°20'207 6.5
2014-Aug-27 13:33N 36°56' W 001°13'1613.0
2014-Aug-27 12:20N 37°05' W 000°57'1113.4
2014-Aug-27 11:33N 37°10' W 000°45'1313.1
2014-Aug-27 10:33N 37°17' W 000°32'1212.2
2014-Aug-27 09:33N 37°24' W 000°19'1616.4
2014-Aug-27 08:33N 37°33' W 000°02'1616.4
2014-Aug-27 07:33N 37°42' E 000°16'1616.4
2014-Aug-27 06:33N 37°51' E 000°33'1616.2
2014-Aug-27 05:33N 37°60' E 000°50'1616.2
2014-Aug-27 04:32N 38°09' E 001°08'1615.5
2014-Aug-27 03:32N 38°17' E 001°24'1515.3
2014-Aug-27 02:33N 38°25' E 001°40'1515.2
2014-Aug-27 01:33N 38°37' E 001°54'1515.7
2014-Aug-27 00:33N 38°50' E 002°04'1615.7
2014-Aug-26 23:33N 39°03' E 002°15'1615.7
2014-Aug-26 22:33N 39°16' E 002°26'1514.8
2014-Aug-26 21:33N 39°28' E 002°37'5 4.9
2014-Aug-26 20:33N 39°33' E 002°38'0 0.0
2014-Aug-26 19:33N 39°33' E 002°38'0 0.0
2014-Aug-26 18:33N 39°33' E 002°38'0 0.0
2014-Aug-26 17:33N 39°33' E 002°38'0 0.0
2014-Aug-26 16:33N 39°33' E 002°38'0 0.0
2014-Aug-26 15:33N 39°33' E 002°38'0 0.0
2014-Aug-26 14:33N 39°33' E 002°38'0 0.0
2014-Aug-26 13:33N 39°33' E 002°38'0 0.0
2014-Aug-26 12:33N 39°33' E 002°38'0 0.0
2014-Aug-26 11:33N 39°33' E 002°38'0 0.0
2014-Aug-26 10:33N 39°33' E 002°38'0 0.0
2014-Aug-26 09:33N 39°33' E 002°38'0 0.0
2014-Aug-26 08:33N 39°33' E 002°38'0 0.0
2014-Aug-26 07:33N 39°33' E 002°38'0 0.0
2014-Aug-26 06:33N 39°33' E 002°38'0 0.0
2014-Aug-26 05:33N 39°33' E 002°38'0 0.0
2014-Aug-26 04:33N 39°33' E 002°38'0 0.1
2014-Aug-26 03:33N 39°33' E 002°38'6 6.0
2014-Aug-26 02:34N 39°28' E 002°35'1211.7
2014-Aug-26 01:33N 39°30' E 002°20'1110.9
2014-Aug-26 00:33N 39°40' E 002°16'1212.0
2014-Aug-25 23:34N 39°52' E 002°21'1312.9
2014-Aug-25 22:33N 40°04' E 002°27'1212.4
2014-Aug-25 21:33N 40°15' E 002°32'1313.2
2014-Aug-25 20:33N 40°28' E 002°35'1616.1
2014-Aug-25 19:33N 40°43' E 002°43'1616.4
2014-Aug-25 18:33N 40°59' E 002°47'1717.0
2014-Aug-25 17:33N 41°16' E 002°53'1716.8
2014-Aug-25 16:33N 41°32' E 002°59'20 2.0
2014-Aug-25 06:32N 41°51' E 003°07'11 7.8
2014-Aug-25 05:11N 41°54' E 003°21'4812.6
2014-Aug-25 01:24N 42°13' E 004°20'1213.0
2014-Aug-25 00:26N 42°18' E 004°35'1112.6
2014-Aug-24 23:34N 42°22' E 004°49'1514.8
2014-Aug-24 22:32N 42°29' E 005°08'1515.5
2014-Aug-24 21:33N 42°35' E 005°27'1515.5
2014-Aug-24 20:34N 42°41' E 005°46'1615.5
2014-Aug-24 19:34N 42°47' E 006°05'1615.8
2014-Aug-24 18:34N 42°54' E 006°25'1615.6
2014-Aug-24 17:34N 43°03' E 006°42'1616.2
2014-Aug-24 16:33N 43°16' E 006°55'1515.3
2014-Aug-24 15:34N 43°31' E 007°01'1 1.2
2014-Aug-24 14:31N 43°32' E 007°01'0 0.0
2014-Aug-24 13:19N 43°32' E 007°01'0 0.0
2014-Aug-24 12:31N 43°32' E 007°01'0 0.0
2014-Aug-24 11:30N 43°32' E 007°01'0 0.0
2014-Aug-24 10:33N 43°32' E 007°01'0 0.0
2014-Aug-24 09:33N 43°32' E 007°01'0 0.0
2014-Aug-24 08:33N 43°32' E 007°01'0 0.1
2014-Aug-24 07:33N 43°32' E 007°01'0 0.0
2014-Aug-24 06:21N 43°32' E 007°01'0 0.0
2014-Aug-24 05:33N 43°32' E 007°01'0 0.1
2014-Aug-24 04:33N 43°32' E 007°01'0 0.4
2014-Aug-24 03:33N 43°32' E 007°01'9 8.6
2014-Aug-24 02:33N 43°29' E 007°12'5914.8
2014-Aug-23 22:34N 43°31' E 008°34'1514.5
2014-Aug-23 21:33N 43°32' E 008°54'1615.9
2014-Aug-23 20:33N 43°32' E 009°16'1515.1
2014-Aug-23 19:33N 43°34' E 009°37'27 1.7
2014-Aug-23 03:33N 43°27' E 010°13'1312.8
2014-Aug-23 02:33N 43°15' E 010°09'1312.7
2014-Aug-23 01:33N 43°02' E 010°06'1312.9
2014-Aug-23 00:32N 42°49' E 010°02'1311.9
2014-Aug-22 23:26N 42°38' E 010°11'1112.8
2014-Aug-22 22:33N 42°30' E 010°21'1413.0
2014-Aug-22 21:31N 42°20' E 010°34'95 3.2
2014-Aug-21 15:27N 41°37' E 008°38'1314.5
2014-Aug-21 14:33N 41°50' E 008°41'19 1.7
2014-Aug-21 03:20N 41°40' E 008°19'23311.0
2014-Aug-20 06:14N 39°29' E 004°06'710.6
2014-Aug-20 05:33N 39°25' E 003°58'1110.8
2014-Aug-20 04:33N 39°20' E 003°45'1110.7
2014-Aug-20 03:33N 39°15' E 003°33'1110.9
2014-Aug-20 02:33N 39°10' E 003°20'1110.6
2014-Aug-20 01:33N 39°05' E 003°08'1110.6
2014-Aug-20 00:33N 39°02' E 002°55'9 8.9
2014-Aug-19 23:33N 39°08' E 002°47'1111.3
2014-Aug-19 22:33N 39°19' E 002°43'1111.1
2014-Aug-19 21:33N 39°30' E 002°40'4 3.6
2014-Aug-19 20:33N 39°33' E 002°38'0 0.0
2014-Aug-19 19:33N 39°33' E 002°38'0 0.0
2014-Aug-19 18:33N 39°33' E 002°38'  
Track history (hours):
 
Tides and Currents Weather Stations Pressure Air Temp Water Temp Dewpoint Dewpoint Depression Visibility Wind Speed Wind Dir Waves Ship Positions

Island Escape

Operator: V Ships Leisure SAM

Last reported at 2014-Aug-29 17:33 UTC. Time now 2014-Aug-31 00:32 UTC.
Position N 35°60' W 005°19'.

Length 185 m; draft 7.3 m.

Type: Passenger vessel. MMSI: 311368000.

Date/timePositionNaut miles runAvg speedWind from/ knotsBaromVisibWave heightAir tempDewpointWater temp
2014-Aug-29 17:33N 35°60' W 005°19'1 0.0
2014-Aug-28 21:33N 35°60' W 005°20'207 6.5
2014-Aug-27 13:33N 36°56' W 001°13'1613.0
2014-Aug-27 12:20N 37°05' W 000°57'1113.4
2014-Aug-27 11:33N 37°10' W 000°45'1313.1
2014-Aug-27 10:33N 37°17' W 000°32'1212.2
2014-Aug-27 09:33N 37°24' W 000°19'1616.4
2014-Aug-27 08:33N 37°33' W 000°02'1616.4
2014-Aug-27 07:33N 37°42' E 000°16'1616.4
2014-Aug-27 06:33N 37°51' E 000°33'1616.2
2014-Aug-27 05:33N 37°60' E 000°50'1616.2
2014-Aug-27 04:32N 38°09' E 001°08'1615.5
2014-Aug-27 03:32N 38°17' E 001°24'1515.3
2014-Aug-27 02:33N 38°25' E 001°40'1515.2
2014-Aug-27 01:33N 38°37' E 001°54'1515.7
2014-Aug-27 00:33N 38°50' E 002°04'1615.7
2014-Aug-26 23:33N 39°03' E 002°15'1615.7
2014-Aug-26 22:33N 39°16' E 002°26'1514.8
2014-Aug-26 21:33N 39°28' E 002°37'5 4.9
2014-Aug-26 20:33N 39°33' E 002°38'0 0.0
2014-Aug-26 19:33N 39°33' E 002°38'0 0.0
2014-Aug-26 18:33N 39°33' E 002°38'0 0.0
2014-Aug-26 17:33N 39°33' E 002°38'0 0.0
2014-Aug-26 16:33N 39°33' E 002°38'0 0.0
2014-Aug-26 15:33N 39°33' E 002°38'0 0.0
2014-Aug-26 14:33N 39°33' E 002°38'0 0.0
2014-Aug-26 13:33N 39°33' E 002°38'0 0.0
2014-Aug-26 12:33N 39°33' E 002°38'0 0.0
2014-Aug-26 11:33N 39°33' E 002°38'0 0.0
2014-Aug-26 10:33N 39°33' E 002°38'0 0.0
2014-Aug-26 09:33N 39°33' E 002°38'0 0.0
2014-Aug-26 08:33N 39°33' E 002°38'0 0.0
2014-Aug-26 07:33N 39°33' E 002°38'0 0.0
2014-Aug-26 06:33N 39°33' E 002°38'0 0.0
2014-Aug-26 05:33N 39°33' E 002°38'0 0.0
2014-Aug-26 04:33N 39°33' E 002°38'0 0.1
2014-Aug-26 03:33N 39°33' E 002°38'6 6.0
2014-Aug-26 02:34N 39°28' E 002°35'1211.7
2014-Aug-26 01:33N 39°30' E 002°20'1110.9
2014-Aug-26 00:33N 39°40' E 002°16'1212.0
2014-Aug-25 23:34N 39°52' E 002°21'1312.9
2014-Aug-25 22:33N 40°04' E 002°27'1212.4
2014-Aug-25 21:33N 40°15' E 002°32'1313.2
2014-Aug-25 20:33N 40°28' E 002°35'1616.1
2014-Aug-25 19:33N 40°43' E 002°43'1616.4
2014-Aug-25 18:33N 40°59' E 002°47'1717.0
2014-Aug-25 17:33N 41°16' E 002°53'1716.8
2014-Aug-25 16:33N 41°32' E 002°59'20 2.0
2014-Aug-25 06:32N 41°51' E 003°07'11 7.8
2014-Aug-25 05:11N 41°54' E 003°21'4812.6
2014-Aug-25 01:24N 42°13' E 004°20'1213.0
2014-Aug-25 00:26N 42°18' E 004°35'1112.6
2014-Aug-24 23:34N 42°22' E 004°49'1514.8
2014-Aug-24 22:32N 42°29' E 005°08'1515.5
2014-Aug-24 21:33N 42°35' E 005°27'1515.5
2014-Aug-24 20:34N 42°41' E 005°46'1615.5
2014-Aug-24 19:34N 42°47' E 006°05'1615.8
2014-Aug-24 18:34N 42°54' E 006°25'1615.6
2014-Aug-24 17:34N 43°03' E 006°42'1616.2
2014-Aug-24 16:33N 43°16' E 006°55'1515.3
2014-Aug-24 15:34N 43°31' E 007°01'1 1.2
2014-Aug-24 14:31N 43°32' E 007°01'0 0.0
2014-Aug-24 13:19N 43°32' E 007°01'0 0.0
2014-Aug-24 12:31N 43°32' E 007°01'0 0.0
2014-Aug-24 11:30N 43°32' E 007°01'0 0.0
2014-Aug-24 10:33N 43°32' E 007°01'0 0.0
2014-Aug-24 09:33N 43°32' E 007°01'0 0.0
2014-Aug-24 08:33N 43°32' E 007°01'0 0.1
2014-Aug-24 07:33N 43°32' E 007°01'0 0.0
2014-Aug-24 06:21N 43°32' E 007°01'0 0.0
2014-Aug-24 05:33N 43°32' E 007°01'0 0.1
2014-Aug-24 04:33N 43°32' E 007°01'0 0.4
2014-Aug-24 03:33N 43°32' E 007°01'9 8.6
2014-Aug-24 02:33N 43°29' E 007°12'5914.8
2014-Aug-23 22:34N 43°31' E 008°34'1514.5
2014-Aug-23 21:33N 43°32' E 008°54'1615.9
2014-Aug-23 20:33N 43°32' E 009°16'1515.1
2014-Aug-23 19:33N 43°34' E 009°37'27 1.7
2014-Aug-23 03:33N 43°27' E 010°13'1312.8
2014-Aug-23 02:33N 43°15' E 010°09'1312.7
2014-Aug-23 01:33N 43°02' E 010°06'1312.9
2014-Aug-23 00:32N 42°49' E 010°02'1311.9
2014-Aug-22 23:26N 42°38' E 010°11'1112.8
2014-Aug-22 22:33N 42°30' E 010°21'1413.0
2014-Aug-22 21:31N 42°20' E 010°34'95 3.2
2014-Aug-21 15:27N 41°37' E 008°38'1314.5
2014-Aug-21 14:33N 41°50' E 008°41'19 1.7
2014-Aug-21 03:20N 41°40' E 008°19'23311.0
2014-Aug-20 06:14N 39°29' E 004°06'710.6
2014-Aug-20 05:33N 39°25' E 003°58'1110.8
2014-Aug-20 04:33N 39°20' E 003°45'1110.7
2014-Aug-20 03:33N 39°15' E 003°33'1110.9
2014-Aug-20 02:33N 39°10' E 003°20'1110.6
2014-Aug-20 01:33N 39°05' E 003°08'1110.6
2014-Aug-20 00:33N 39°02' E 002°55'9 8.9
2014-Aug-19 23:33N 39°08' E 002°47'1111.3
2014-Aug-19 22:33N 39°19' E 002°43'1111.1
2014-Aug-19 21:33N 39°30' E 002°40'4 3.6
2014-Aug-19 20:33N 39°33' E 002°38'0 0.0
2014-Aug-19 19:33N 39°33' E 002°38'0 0.0
2014-Aug-19 18:33N 39°33' E 002°38'  

Dump ship's entire track history